Winona, MN

3:18 PM CDT on April 21, 2018 (GMT -0500)
Winona Municipal-Conrad

Weather History for KONA - January, 2012

Change the Weather History Date:

Sunday, January 15, 2012

  Actual Average Record
Temperature  
Mean Temperature 27 °F -  
Max Temperature 35 °F 25 °F 42 °F (2000)
Min Temperature 19 °F 9 °F -18 °F (2009)
Degree Days  
Heating Degree Days 38    
Moisture  
Dew Point 17 °F    
Average Humidity 72    
Maximum Humidity 93    
Minimum Humidity 48    
Precipitation  
Precipitation 0.00 in - - ()
Sea Level Pressure  
Sea Level Pressure 30.03 in    
Wind  
Wind Speed 7 mph (SE)    
Max Wind Speed 13 mph    
Max Gust Speed 21 mph    
Visibility 9 miles    
Events      
Averages and records for this station are not official NWS values.
T = Trace of Precipitation, MM = Missing Value Source: NWS Daily Summary

Daily Weather History Graph

Daily Weather History Graph

Search for Another Location

Airport or City:

Astronomy

Jan. 15, 2012 Rise Set
Actual Time 7:38 AM CST 4:53 PM CST
Civil Twilight 7:06 AM CST 5:25 PM CST
Nautical Twilight 6:30 AM CST 6:01 PM CST
Astronomical Twilight 5:56 AM CST 6:36 PM CST
Moon No Moon Rise 10:39 AM CST (1/15)
Length of Visible Light 10h 19m
Length of Day
9h 15m
Waning Gibbous, 57% of the Moon is Illuminated
Jan 15
Waning Gibbous
Jan 16
Last Quarter
Jan 23
New
Jan 30
First Quarter
Feb 7
Full

Hourly Weather History & Observations

Time (CST) Temp. Windchill Dew Point Humidity Pressure Visibility Wind Dir Wind Speed Gust Speed Precip Events Conditions
12:16 AM 19.4 °F 11.5 °F 12.2 °F 74% 30.15 in 10.0 mi ESE 5.8 mph - N/A   Overcast
12:37 AM 19.4 °F 12.8 °F 12.2 °F 74% 30.16 in 10.0 mi SE 4.6 mph - N/A   Overcast
12:57 AM 19.4 °F 11.5 °F 12.2 °F 74% 30.16 in 10.0 mi SE 5.8 mph - N/A   Overcast
1:17 AM 19.4 °F 12.8 °F 12.2 °F 74% 30.16 in 10.0 mi SE 4.6 mph - N/A   Overcast
1:36 AM 19.4 °F 12.8 °F 12.2 °F 74% 30.17 in 10.0 mi SE 4.6 mph - N/A   Overcast
1:57 AM 19.4 °F 11.5 °F 12.2 °F 74% 30.16 in 10.0 mi SE 5.8 mph - N/A   Overcast
2:17 AM 19.4 °F 10.4 °F 12.2 °F 74% 30.16 in 10.0 mi ESE 6.9 mph - N/A   Overcast
2:36 AM 19.4 °F 11.5 °F 12.2 °F 74% 30.16 in 10.0 mi SSE 5.8 mph - N/A   Overcast
2:57 AM 19.4 °F 12.8 °F 12.2 °F 74% 30.17 in 10.0 mi SE 4.6 mph - N/A   Overcast
3:36 AM 19.4 °F 10.4 °F 14.0 °F 80% 30.15 in 10.0 mi SE 6.9 mph - N/A   Overcast
3:57 AM 19.4 °F 12.8 °F 14.0 °F 80% 30.16 in 10.0 mi SSE 4.6 mph - N/A   Overcast
4:17 AM 19.4 °F 11.5 °F 14.0 °F 80% 30.16 in 10.0 mi SE 5.8 mph - N/A   Overcast
4:37 AM 19.4 °F 11.5 °F 14.0 °F 80% 30.15 in 10.0 mi SE 5.8 mph - N/A   Overcast
4:56 AM 19.4 °F 12.8 °F 14.0 °F 80% 30.14 in 10.0 mi SE 4.6 mph - N/A   Mostly Cloudy
5:17 AM 19.4 °F - 14.0 °F 80% 30.14 in 10.0 mi Calm Calm - N/A   Overcast
5:37 AM 19.4 °F 12.8 °F 14.0 °F 80% 30.14 in 10.0 mi SSE 4.6 mph - N/A   Overcast
5:56 AM 19.4 °F 12.8 °F 15.8 °F 86% 30.14 in 10.0 mi SSE 4.6 mph - N/A   Overcast
6:17 AM 19.4 °F 10.4 °F 15.8 °F 86% 30.14 in 10.0 mi SE 6.9 mph - N/A   Overcast
6:37 AM 19.4 °F 10.4 °F 15.8 °F 86% 30.14 in 10.0 mi SE 6.9 mph - N/A   Overcast
6:56 AM 19.4 °F 9.5 °F 15.8 °F 86% 30.13 in 7.0 mi SE 8.1 mph - N/A   Overcast
7:17 AM 19.4 °F 12.8 °F 17.6 °F 93% 30.14 in 7.0 mi SSE 4.6 mph - N/A   Overcast
7:37 AM 19.4 °F 11.5 °F 17.6 °F 93% 30.14 in 7.0 mi SSE 5.8 mph - N/A   Overcast
7:56 AM 19.4 °F 11.5 °F 17.6 °F 93% 30.14 in 5.0 mi SSE 5.8 mph - N/A   Overcast
8:17 AM 19.4 °F 10.4 °F 17.6 °F 93% 30.14 in 5.0 mi SE 6.9 mph - N/A   Overcast
8:37 AM 21.2 °F 11.7 °F 17.6 °F 86% 30.13 in 5.0 mi SE 8.1 mph - N/A   Overcast
8:56 AM 19.4 °F 10.4 °F 17.6 °F 93% 30.13 in 5.0 mi SE 6.9 mph - N/A   Overcast
9:17 AM 21.2 °F 11.7 °F 17.6 °F 86% 30.12 in 7.0 mi SE 8.1 mph - N/A   Scattered Clouds
9:37 AM 23.0 °F 13.1 °F 17.6 °F 80% 30.12 in 7.0 mi SE 9.2 mph - N/A   Clear
9:56 AM 23.0 °F 13.1 °F 19.4 °F 86% 30.12 in 10.0 mi SE 9.2 mph - N/A   Clear
10:17 AM 23.0 °F 12.4 °F 17.6 °F 80% 30.11 in 10.0 mi SE 10.4 mph - N/A   Clear
10:37 AM 26.6 °F 16.8 °F 19.4 °F 74% 30.11 in 10.0 mi SE 10.4 mph - N/A   Clear
10:57 AM 26.6 °F 18.2 °F 19.4 °F 74% 30.10 in 10.0 mi SE 8.1 mph - N/A   Clear
11:17 AM 26.6 °F 17.5 °F 17.6 °F 69% 30.09 in 10.0 mi SE 9.2 mph - N/A   Clear
11:37 AM 28.4 °F 18.5 °F 19.4 °F 69% 30.07 in 10.0 mi SE 11.5 mph - N/A   Clear
12:17 PM 32.0 °F 23.6 °F 21.2 °F 64% 30.03 in 10.0 mi SE 10.4 mph - N/A   Clear
12:37 PM 32.0 °F 23.0 °F 19.4 °F 60% 30.00 in 10.0 mi SE 11.5 mph - N/A   Clear
12:56 PM 32.0 °F 23.6 °F 19.4 °F 60% 29.98 in 10.0 mi ESE 10.4 mph - N/A   Clear
1:17 PM 32.0 °F 23.0 °F 19.4 °F 60% 29.95 in 10.0 mi SE 11.5 mph 18.4 mph N/A   Clear
1:37 PM 32.0 °F 22.5 °F 17.6 °F 55% 29.93 in 10.0 mi SSE 12.7 mph 20.7 mph N/A   Clear
1:56 PM 32.0 °F 23.0 °F 19.4 °F 60% 29.91 in 10.0 mi SE 11.5 mph 17.3 mph N/A   Clear
2:17 PM 35.6 °F 27.5 °F 19.4 °F 52% 29.90 in 10.0 mi SSE 11.5 mph - N/A   Clear
2:37 PM 35.6 °F 27.5 °F 19.4 °F 52% 29.89 in 10.0 mi SE 11.5 mph 18.4 mph N/A   Clear
2:56 PM 33.8 °F 24.8 °F 19.4 °F 56% 29.87 in 10.0 mi SE 12.7 mph - N/A   Clear
3:17 PM 35.6 °F 28.0 °F 19.4 °F 52% 29.86 in 10.0 mi SE 10.4 mph 18.4 mph N/A   Clear
3:37 PM 35.6 °F 29.9 °F 19.4 °F 52% 29.86 in 10.0 mi SSE 6.9 mph 20.7 mph N/A   Clear
3:56 PM 35.6 °F 32.8 °F 17.6 °F 48% 29.87 in 10.0 mi South 3.5 mph - N/A   Clear
4:17 PM 33.8 °F 28.6 °F 17.6 °F 52% 29.87 in 10.0 mi SSE 5.8 mph - N/A   Clear
4:36 PM 32.0 °F 23.6 °F 19.4 °F 60% 29.87 in 10.0 mi SE 10.4 mph - N/A   Clear
4:56 PM 32.0 °F 24.8 °F 19.4 °F 60% 29.87 in 10.0 mi SE 8.1 mph - N/A   Clear
5:17 PM 32.0 °F 23.6 °F 17.6 °F 55% 29.87 in 10.0 mi SE 10.4 mph - N/A   Clear
5:37 PM 32.0 °F 26.4 °F 19.4 °F 60% 29.88 in 10.0 mi SSE 5.8 mph - N/A   Clear
5:56 PM 32.0 °F 24.2 °F 21.2 °F 64% 29.87 in 10.0 mi SE 9.2 mph - N/A   Clear
6:17 PM 32.0 °F 23.6 °F 21.2 °F 64% 29.87 in 10.0 mi SE 10.4 mph - N/A   Clear
6:36 PM 28.4 °F 19.1 °F 19.4 °F 69% 29.86 in 10.0 mi SE 10.4 mph - N/A   Clear
6:56 PM 28.4 °F 19.1 °F 19.4 °F 69% 29.85 in 10.0 mi SE 10.4 mph - N/A   Clear
7:17 PM 28.4 °F 19.7 °F 21.2 °F 74% 29.85 in 10.0 mi SE 9.2 mph - N/A   Clear
7:36 PM 28.4 °F 20.4 °F 21.2 °F 74% 29.84 in 10.0 mi SE 8.1 mph - N/A   Clear
7:57 PM 28.4 °F 21.2 °F 21.2 °F 74% 29.85 in 10.0 mi SE 6.9 mph - N/A   Clear
8:16 PM 28.4 °F 20.4 °F 21.2 °F 74% 29.84 in 10.0 mi SE 8.1 mph - N/A   Clear
8:37 PM 28.4 °F 19.7 °F 19.4 °F 69% 29.84 in 10.0 mi SE 9.2 mph - N/A   Clear
8:57 PM 28.4 °F 21.2 °F 21.2 °F 74% 29.83 in 10.0 mi SE 6.9 mph - N/A   Clear
9:17 PM 26.6 °F 19.1 °F 21.2 °F 80% 29.83 in 10.0 mi SE 6.9 mph - N/A   Clear
9:37 PM 28.4 °F 21.2 °F 21.2 °F 74% 29.82 in 10.0 mi SE 6.9 mph - N/A   Clear
9:56 PM 28.4 °F 21.2 °F 21.2 °F 74% 29.81 in 10.0 mi SE 6.9 mph - N/A   Clear
10:17 PM 28.4 °F 22.2 °F 21.2 °F 74% 29.81 in 10.0 mi SE 5.8 mph - N/A   Clear
10:37 PM 28.4 °F 22.2 °F 21.2 °F 74% 29.81 in 10.0 mi SE 5.8 mph - N/A   Clear
10:56 PM 26.6 °F 21.2 °F 21.2 °F 80% 29.81 in 10.0 mi SE 4.6 mph - N/A   Clear
11:17 PM 26.6 °F 20.0 °F 21.2 °F 80% 29.80 in 10.0 mi SE 5.8 mph - N/A   Clear
11:36 PM 26.6 °F 19.1 °F 21.2 °F 80% 29.78 in 10.0 mi SE 6.9 mph - N/A   Clear
11:57 PM 26.6 °F 20.0 °F 21.2 °F 80% 29.78 in 10.0 mi SE 5.8 mph - N/A   Clear